Location: ?????????
(38.4921°N, 22.9787°E)
Time: 03:20:12
(UTC+00:00)

ATLAS 2AS CENTAUR R/B - Pass Details

Date: 08 December 2025
Orbit: 1049 x 1162 km, 63.7° (Epoch: 15 January)

Event Time Altitude Azimuth Distance (km) Brightness Sun altitude
Rises 04:14:48 0° 186° (S) 3,959 5.8 -14.9°
Reaches altitude 10° 04:17:42 10° 179° (S) 2,987 5.3 -14.3°
Maximum altitude 04:24:09 39° 113° (ESE) 1,598 4.3 -13.1°
Drops below altitude 10° 04:30:27 10° 48° (NE) 2,926 5.4 -12.0°
Sets 04:33:15 0° 41° (NE) 3,870 5.9 -11.5°
